Location: Newark
(30.0333°N, 31.2167°E)
Time: 10:01:06
(UTC+00:00)

Tiros 1 - Pass Details

Date: 24 January 2020
Orbit: 631 x 664 km, 48.4° (Epoch: 22 February)

Event Time Altitude Azimuth Distance (km) Brightness Sun altitude
Rises 08:50:11 0° 199° (SSW) 2,906 11.1 37.3°
Reaches altitude 10° 08:52:47 10° 186° (S) 2,006 10.7 37.5°
Maximum altitude 08:56:36 26° 130° (SE) 1,258 10.0 37.8°
Drops below altitude 10° 09:00:28 10° 74° (ENE) 2,030 9.9 38.1°
Sets 09:03:06 0° 62° (ENE) 2,948 10.5 38.3°
